Key West, FL

11:05 PM EST on December 08, 2016 (GMT -0500)
Key West Naval Air Station

Weather History for KNQX - April, 2014

Change the Weather History Date:

Wednesday, April 30, 2014

  Actual Average Record
Temperature  
Mean Temperature 84 °F -  
Max Temperature 88 °F 82 °F 88 °F (1964)
Min Temperature 80 °F 72 °F 59 °F (1992)
Cooling Degree Days 18    
Growing Degree Days 34 (Base 50)    
Moisture  
Dew Point 75 °F    
Average Humidity 78    
Maximum Humidity 87    
Minimum Humidity 61    
Precipitation  
Precipitation 0.00 in - - ()
Sea Level Pressure  
Sea Level Pressure 29.99 in    
Wind  
Wind Speed 15 mph (SE)    
Max Wind Speed 20 mph    
Max Gust Speed -    
Visibility 10 miles    
Events      
Averages and records for this station are not official NWS values.
T = Trace of Precipitation, MM = Missing Value Source: NWS Daily Summary

Daily Weather History Graph

Daily Weather History Graph

Search for Another Location

Airport or City:

Trip Planner

Search our weather history database for the weather conditions in past years. The results will help you decide how hot, cold, wet, or windy it might be!

Date:

Astronomy

Apr. 30, 2014 Rise Set
Actual Time 6:52 AM EDT 7:55 PM EDT
Civil Twilight 6:28 AM EDT 8:19 PM EDT
Nautical Twilight 6:00 AM EDT 8:48 PM EDT
Astronomical Twilight 5:31 AM EDT 9:17 PM EDT
Moon 7:55 AM EDT (4/30) 9:28 PM EDT (4/30)
Length of Visible Light 13h 51m
Length of Day
13h 03m
New Moon, 2% of the Moon is Illuminated
Apr 30
New Moon
May 6
First Quarter
May 14
Full
May 21
Last Quarter
May 28
New

Hourly Weather History & Observations

Time (EDT) Temp. Heat Index Dew Point Humidity Pressure Visibility Wind Dir Wind Speed Gust Speed Precip Events Conditions
12:53 AM 80.1 °F 85.1 °F 75.0 °F 85% 29.98 in 10.0 mi SE 17.3 mph - N/A   Clear
1:53 AM 80.1 °F 85.4 °F 75.9 °F 87% 29.98 in 10.0 mi SE 12.7 mph - N/A   Clear
2:53 AM 80.1 °F 85.4 °F 75.9 °F 87% 29.96 in 10.0 mi SE 12.7 mph - N/A   Clear
3:53 AM 80.1 °F 85.1 °F 75.0 °F 85% 29.95 in 10.0 mi SE 16.1 mph - N/A   Clear
4:53 AM 80.1 °F 84.5 °F 73.9 °F 81% 29.95 in 10.0 mi SE 16.1 mph - N/A   Clear
5:53 AM 80.1 °F 84.5 °F 73.9 °F 81% 29.94 in 10.0 mi SE 17.3 mph - N/A   Clear
6:02 AM 80.1 °F 84.5 °F 73.9 °F 81% 29.95 in 10.0 mi SE 15.0 mph - N/A   Clear
6:53 AM 80.1 °F 85.1 °F 75.0 °F 85% 29.98 in 10.0 mi SSE 11.5 mph - N/A   Clear
7:53 AM 81.0 °F 86.7 °F 75.0 °F 82% 29.99 in 10.0 mi SE 11.5 mph - N/A   Partly Cloudy
8:53 AM 82.9 °F 90.8 °F 75.9 °F 79% 29.99 in 10.0 mi SE 13.8 mph - N/A   Partly Cloudy
9:53 AM 84.0 °F 92.6 °F 75.9 °F 76% 30.01 in 10.0 mi SSE 15.0 mph - N/A   Partly Cloudy
10:53 AM 86.0 °F 96.0 °F 75.9 °F 72% 30.02 in 10.0 mi SE 13.8 mph - N/A   Partly Cloudy
11:53 AM 86.0 °F 96.0 °F 75.9 °F 72% 30.04 in 10.0 mi SE 13.8 mph - N/A   Scattered Clouds
12:53 PM 87.1 °F 95.4 °F 73.9 °F 65% 30.03 in 10.0 mi SE 17.3 mph - N/A   Overcast
1:53 PM - - - N/A% 30.03 in 10.0 mi SE 17.3 mph - N/A   Mostly Cloudy
2:53 PM 87.1 °F 94.5 °F 73.0 °F 63% 30.03 in 10.0 mi SE 15.0 mph - N/A   Mostly Cloudy
3:53 PM 86.0 °F 91.5 °F 71.1 °F 61% 30.00 in 10.0 mi ESE 15.0 mph - N/A   Mostly Cloudy
4:53 PM 84.9 °F 91.4 °F 73.0 °F 67% 29.98 in 10.0 mi ESE 12.7 mph - N/A   Mostly Cloudy
5:53 PM 84.0 °F 91.9 °F 75.0 °F 74% 29.98 in 10.0 mi ESE 16.1 mph - N/A   Scattered Clouds
6:53 PM 82.9 °F 89.4 °F 73.9 °F 74% 29.97 in 10.0 mi East 15.0 mph - N/A   Partly Cloudy
7:53 PM 81.0 °F 86.2 °F 73.9 °F 79% 29.99 in 10.0 mi East 16.1 mph - N/A   Partly Cloudy
8:53 PM 81.0 °F 86.7 °F 75.0 °F 82% 29.99 in 10.0 mi East 18.4 mph - N/A   Clear
9:53 PM 81.0 °F 86.7 °F 75.0 °F 82% 30.00 in 10.0 mi East 17.3 mph - N/A   Clear
10:53 PM 81.0 °F 87.3 °F 75.9 °F 85% 30.02 in 10.0 mi East 19.6 mph - N/A   Clear
11:53 PM 80.1 °F 85.4 °F 75.9 °F 87% 30.02 in 10.0 mi ESE 18.4 mph - N/A   Partly Cloudy